Time,TemperatureF,DewpointF,PressureIn,WindDirection,WindDirectionDegrees,WindSpeedMPH,WindSpeedGustMPH,Humidity,HourlyPrecipIn,Conditions,Clouds,dailyrainin,SoftwareType,DateUTC
2013-05-09 00:00:00,59.0,57.0,30.01,ESE,111,2.0,3.0,93,0.01,,---,0.00,VWS V14.01,2013-05-09 04:00:00,
2013-05-09 00:01:00,59.0,57.3,30.01,NE,51,2.0,3.0,94,0.01,,---,0.00,VWS V14.01,2013-05-09 04:01:00,
2013-05-09 00:03:00,59.0,57.3,30.01,SE,128,0.0,4.0,94,0.01,,---,0.00,VWS V14.01,2013-05-09 04:03:00,
2013-05-09 00:04:00,59.0,57.3,30.01,ESE,119,3.0,3.0,94,0.01,,---,0.00,VWS V14.01,2013-05-09 04:04:00,
2013-05-09 00:05:00,59.0,57.3,30.01,SE,128,0.0,4.0,94,0.01,,---,0.00,VWS V14.01,2013-05-09 04:05:00,
2013-05-09 00:09:00,58.7,57.0,30.01,East,81,0.0,2.0,94,0.03,,---,0.02,VWS V14.01,2013-05-09 04:09:00,
2013-05-09 00:10:00,58.8,57.1,30.01,ENE,78,1.0,3.0,94,0.02,,---,0.01,VWS V14.01,2013-05-09 04:10:00,
2013-05-09 00:14:00,58.5,56.8,30.01,ESE,123,0.0,3.0,94,0.03,,---,0.02,VWS V14.01,2013-05-09 04:14:00,
2013-05-09 00:15:00,58.5,56.8,30.01,ESE,123,0.0,4.0,94,0.03,,---,0.02,VWS V14.01,2013-05-09 04:15:00,
2013-05-09 00:20:00,58.4,56.7,30.01,ESE,105,1.0,5.0,94,0.03,,---,0.02,VWS V14.01,2013-05-09 04:20:00,
2013-05-09 00:25:00,58.2,56.5,30.01,ESE,122,0.0,4.0,94,0.03,,---,0.02,VWS V14.01,2013-05-09 04:25:00,
2013-05-09 00:30:00,58.1,56.4,30.00,SSE,161,0.0,5.0,94,0.04,,---,0.03,VWS V14.01,2013-05-09 04:30:00,
2013-05-09 00:35:00,57.9,56.2,30.00,East,98,4.0,7.0,94,0.04,,---,0.03,VWS V14.01,2013-05-09 04:35:00,
2013-05-09 00:40:00,57.7,56.0,30.00,East,98,4.0,4.0,94,0.04,,---,0.04,VWS V14.01,2013-05-09 04:40:00,
2013-05-09 00:45:00,57.6,56.2,30.00,East,79,2.0,3.0,95,0.04,,---,0.04,VWS V14.01,2013-05-09 04:45:00,
2013-05-09 00:50:00,57.5,56.1,29.99,ESE,105,2.0,3.0,95,0.04,,---,0.04,VWS V14.01,2013-05-09 04:50:00,
2013-05-09 00:55:00,57.4,56.0,29.99,ESE,105,0.0,2.0,95,0.04,,---,0.04,VWS V14.01,2013-05-09 04:55:00,
2013-05-09 01:00:00,57.3,55.9,29.99,ESE,113,2.0,4.0,95,0.04,,---,0.04,VWS V14.01,2013-05-09 05:00:00,
2013-05-09 01:05:00,57.2,55.8,29.99,East,98,0.0,3.0,95,0.04,,---,0.04,VWS V14.01,2013-05-09 05:05:00,
2013-05-09 01:10:00,57.1,55.7,29.99,East,98,0.0,2.0,95,0.03,,---,0.04,VWS V14.01,2013-05-09 05:10:00,
2013-05-09 01:15:00,57.1,55.7,29.99,East,92,1.0,2.0,95,0.02,,---,0.04,VWS V14.01,2013-05-09 05:15:00,
2013-05-09 01:20:00,57.0,55.6,29.99,East,92,0.0,2.0,95,0.02,,---,0.04,VWS V14.01,2013-05-09 05:20:00,
2013-05-09 01:25:00,57.0,55.6,29.98,East,92,0.0,2.0,95,0.02,,---,0.04,VWS V14.01,2013-05-09 05:25:00,
2013-05-09 01:30:00,56.9,55.5,29.98,East,92,0.0,0.0,95,0.02,,---,0.04,VWS V14.01,2013-05-09 05:30:00,
2013-05-09 01:35:00,56.9,55.5,29.98,East,92,0.0,0.0,95,0.01,,---,0.04,VWS V14.01,2013-05-09 05:35:00,
2013-05-09 01:40:00,56.9,55.5,29.98,East,92,0.0,1.0,95,0.01,,---,0.04,VWS V14.01,2013-05-09 05:40:00,
2013-05-09 01:45:00,56.9,55.5,29.98,East,92,0.0,1.0,95,0.00,,---,0.04,VWS V14.01,2013-05-09 05:45:00,
2013-05-09 01:50:00,56.9,55.5,29.98,East,92,0.0,1.0,95,0.00,,---,0.04,VWS V14.01,2013-05-09 05:50:00,
2013-05-09 01:55:00,56.9,55.8,29.98,East,92,0.0,3.0,96,0.00,,---,0.04,VWS V14.01,2013-05-09 05:55:00,
2013-05-09 02:00:00,56.8,55.7,29.98,East,92,1.0,1.0,96,0.00,,---,0.04,VWS V14.01,2013-05-09 06:00:00,
2013-05-09 02:05:00,56.8,55.7,29.98,East,92,0.0,1.0,96,0.00,,---,0.04,VWS V14.01,2013-05-09 06:05:00,
2013-05-09 02:06:00,56.8,55.7,29.98,East,92,0.0,0.0,96,0.00,,---,0.04,VWS V14.01,2013-05-09 06:06:00,
2013-05-09 02:10:00,56.8,55.7,29.97,East,92,0.0,0.0,96,0.00,,---,0.04,VWS V14.01,2013-05-09 06:10:00,
2013-05-09 02:11:00,56.8,55.7,29.97,East,92,0.0,2.0,96,0.00,,---,0.04,VWS V14.01,2013-05-09 06:11:00,
2013-05-09 02:15:00,56.8,55.7,29.97,East,92,0.0,2.0,96,0.00,,---,0.04,VWS V14.01,2013-05-09 06:15:00,
2013-05-09 02:16:00,56.8,55.7,29.97,East,92,0.0,0.0,96,0.00,,---,0.04,VWS V14.01,2013-05-09 06:16:00,
2013-05-09 02:20:00,56.8,55.7,29.97,East,92,0.0,0.0,96,0.00,,---,0.04,VWS V14.01,2013-05-09 06:20:00,
2013-05-09 02:21:00,56.8,55.7,29.97,East,92,0.0,0.0,96,0.00,,---,0.04,VWS V14.01,2013-05-09 06:21:00,
2013-05-09 02:25:00,56.8,55.7,29.97,East,92,0.0,1.0,96,0.00,,---,0.04,VWS V14.01,2013-05-09 06:25:00,
2013-05-09 02:26:00,56.9,55.8,29.97,East,92,0.0,0.0,96,0.00,,---,0.04,VWS V14.01,2013-05-09 06:26:00,
2013-05-09 02:30:00,56.9,55.8,29.97,East,92,0.0,0.0,96,0.00,,---,0.04,VWS V14.01,2013-05-09 06:30:00,
2013-05-09 02:31:00,56.9,55.8,29.97,East,92,0.0,1.0,96,0.00,,---,0.04,VWS V14.01,2013-05-09 06:31:00,
2013-05-09 02:35:00,56.9,55.8,29.96,East,92,0.0,2.0,96,0.00,,---,0.04,VWS V14.01,2013-05-09 06:35:00,
2013-05-09 02:36:00,56.9,55.8,29.96,East,92,0.0,0.0,96,0.00,,---,0.04,VWS V14.01,2013-05-09 06:36:00,
2013-05-09 02:40:00,56.9,55.8,29.96,East,92,0.0,0.0,96,0.00,,---,0.04,VWS V14.01,2013-05-09 06:40:00,
2013-05-09 02:41:00,57.0,55.9,29.96,East,92,0.0,1.0,96,0.00,,---,0.04,VWS V14.01,2013-05-09 06:41:00,
2013-05-09 02:45:00,57.0,55.9,29.96,East,92,0.0,1.0,96,0.00,,---,0.04,VWS V14.01,2013-05-09 06:45:00,
2013-05-09 02:46:00,56.9,55.8,29.96,East,92,0.0,0.0,96,0.00,,---,0.04,VWS V14.01,2013-05-09 06:46:00,
2013-05-09 02:50:00,56.9,55.8,29.96,East,92,0.0,0.0,96,0.00,,---,0.04,VWS V14.01,2013-05-09 06:50:00,
2013-05-09 02:51:00,56.9,55.8,29.96,East,92,0.0,0.0,96,0.00,,---,0.04,VWS V14.01,2013-05-09 06:51:00,
2013-05-09 02:55:00,56.9,55.8,29.96,East,92,0.0,0.0,96,0.00,,---,0.04,VWS V14.01,2013-05-09 06:55:00,
2013-05-09 02:56:00,56.9,55.8,29.96,East,92,0.0,1.0,96,0.00,,---,0.04,VWS V14.01,2013-05-09 06:56:00,
2013-05-09 03:00:00,56.9,55.8,29.96,East,92,0.0,1.0,96,0.00,,---,0.04,VWS V14.01,2013-05-09 07:00:00,
2013-05-09 03:01:00,56.9,55.8,29.96,East,92,0.0,1.0,96,0.00,,---,0.04,VWS V14.01,2013-05-09 07:01:00,
2013-05-09 03:05:00,56.9,55.8,29.96,East,92,0.0,1.0,96,0.00,,---,0.04,VWS V14.01,2013-05-09 07:05:00,
2013-05-09 03:06:00,56.9,55.8,29.96,East,92,0.0,1.0,96,0.00,,---,0.04,VWS V14.01,2013-05-09 07:06:00,
2013-05-09 03:10:00,56.9,55.8,29.96,East,92,0.0,1.0,96,0.00,,---,0.04,VWS V14.01,2013-05-09 07:10:00,
2013-05-09 03:11:00,56.9,55.8,29.96,East,92,0.0,0.0,96,0.00,,---,0.04,VWS V14.01,2013-05-09 07:11:00,
2013-05-09 03:15:00,56.9,55.8,29.96,East,92,0.0,1.0,96,0.00,,---,0.04,VWS V14.01,2013-05-09 07:15:00,
2013-05-09 03:16:00,56.9,55.8,29.97,East,92,0.0,0.0,96,0.00,,---,0.04,VWS V14.01,2013-05-09 07:16:00,
2013-05-09 03:20:00,56.9,55.8,29.97,East,92,0.0,0.0,96,0.00,,---,0.04,VWS V14.01,2013-05-09 07:20:00,
2013-05-09 03:21:00,56.9,55.8,29.97,East,92,0.0,0.0,96,0.00,,---,0.04,VWS V14.01,2013-05-09 07:21:00,
2013-05-09 03:25:00,56.9,55.8,29.96,East,92,0.0,0.0,96,0.00,,---,0.04,VWS V14.01,2013-05-09 07:25:00,
2013-05-09 03:26:00,56.9,55.8,29.96,East,92,0.0,1.0,96,0.00,,---,0.04,VWS V14.01,2013-05-09 07:26:00,
2013-05-09 03:30:00,56.9,55.8,29.97,East,92,0.0,1.0,96,0.00,,---,0.04,VWS V14.01,2013-05-09 07:30:00,
2013-05-09 03:31:00,56.9,55.8,29.96,East,92,1.0,2.0,96,0.00,,---,0.04,VWS V14.01,2013-05-09 07:31:00,
2013-05-09 03:35:00,56.9,55.8,29.96,East,92,0.0,2.0,96,0.00,,---,0.04,VWS V14.01,2013-05-09 07:35:00,
2013-05-09 03:36:00,56.9,55.8,29.96,East,92,0.0,0.0,96,0.00,,---,0.04,VWS V14.01,2013-05-09 07:36:00,
2013-05-09 03:40:00,56.9,55.8,29.96,East,92,0.0,0.0,96,0.00,,---,0.04,VWS V14.01,2013-05-09 07:40:00,
2013-05-09 03:41:00,56.9,55.8,29.96,East,92,0.0,0.0,96,0.00,,---,0.04,VWS V14.01,2013-05-09 07:41:00,
2013-05-09 03:45:00,56.9,55.8,29.96,East,92,0.0,0.0,96,0.00,,---,0.04,VWS V14.01,2013-05-09 07:45:00,
2013-05-09 03:46:00,57.0,55.9,29.96,East,92,0.0,0.0,96,0.00,,---,0.04,VWS V14.01,2013-05-09 07:46:00,
2013-05-09 03:50:00,57.0,55.9,29.96,East,92,0.0,0.0,96,0.00,,---,0.04,VWS V14.01,2013-05-09 07:50:00,
2013-05-09 03:51:00,57.0,55.9,29.96,East,92,0.0,0.0,96,0.00,,---,0.04,VWS V14.01,2013-05-09 07:51:00,
2013-05-09 03:55:00,57.0,55.9,29.96,East,92,0.0,0.0,96,0.00,,---,0.04,VWS V14.01,2013-05-09 07:55:00,
2013-05-09 03:56:00,57.1,56.0,29.96,East,92,0.0,0.0,96,0.00,,---,0.04,VWS V14.01,2013-05-09 07:56:00,
2013-05-09 04:00:00,57.1,56.0,29.96,East,92,0.0,0.0,96,0.00,,---,0.04,VWS V14.01,2013-05-09 08:00:00,
2013-05-09 04:01:00,57.1,56.0,29.95,East,92,0.0,0.0,96,0.00,,---,0.04,VWS V14.01,2013-05-09 08:01:00,
2013-05-09 04:05:00,57.1,56.0,29.95,East,92,0.0,0.0,96,0.00,,---,0.04,VWS V14.01,2013-05-09 08:05:00,
2013-05-09 04:07:00,57.1,56.0,29.95,East,92,0.0,0.0,96,0.00,,---,0.04,VWS V14.01,2013-05-09 08:07:00,
2013-05-09 04:10:00,57.1,56.0,29.95,East,92,0.0,0.0,96,0.00,,---,0.04,VWS V14.01,2013-05-09 08:10:00,
2013-05-09 04:12:00,57.1,56.0,29.95,East,92,0.0,1.0,96,0.00,,---,0.04,VWS V14.01,2013-05-09 08:12:00,
2013-05-09 04:15:00,57.1,56.0,29.95,East,92,0.0,1.0,96,0.00,,---,0.04,VWS V14.01,2013-05-09 08:15:00,
2013-05-09 04:17:00,57.1,56.0,29.95,East,92,0.0,1.0,96,0.00,,---,0.04,VWS V14.01,2013-05-09 08:17:00,
2013-05-09 04:20:00,57.1,56.0,29.95,East,92,0.0,1.0,96,0.00,,---,0.04,VWS V14.01,2013-05-09 08:20:00,
2013-05-09 04:22:00,57.1,56.0,29.95,East,92,0.0,1.0,96,0.00,,---,0.04,VWS V14.01,2013-05-09 08:22:00,
2013-05-09 04:25:00,57.1,56.0,29.95,East,92,1.0,2.0,96,0.00,,---,0.04,VWS V14.01,2013-05-09 08:25:00,
2013-05-09 04:27:00,57.1,56.0,29.94,East,92,0.0,1.0,96,0.00,,---,0.04,VWS V14.01,2013-05-09 08:27:00,
2013-05-09 04:30:00,57.1,56.0,29.94,East,92,0.0,1.0,96,0.00,,---,0.04,VWS V14.01,2013-05-09 08:30:00,
2013-05-09 04:32:00,57.1,56.0,29.94,East,92,0.0,1.0,96,0.00,,---,0.04,VWS V14.01,2013-05-09 08:32:00,
2013-05-09 04:35:00,57.1,56.0,29.94,East,92,0.0,1.0,96,0.00,,---,0.04,VWS V14.01,2013-05-09 08:35:00,
2013-05-09 04:37:00,57.1,56.0,29.94,East,92,0.0,0.0,96,0.00,,---,0.04,VWS V14.01,2013-05-09 08:37:00,
2013-05-09 04:40:00,57.1,56.0,29.94,East,92,0.0,0.0,96,0.00,,---,0.04,VWS V14.01,2013-05-09 08:40:00,
2013-05-09 04:42:00,57.1,56.3,29.94,East,92,0.0,0.0,97,0.00,,---,0.04,VWS V14.01,2013-05-09 08:42:00,
2013-05-09 04:45:00,57.1,56.3,29.94,East,92,0.0,0.0,97,0.00,,---,0.04,VWS V14.01,2013-05-09 08:45:00,
2013-05-09 04:47:00,57.1,56.3,29.94,East,92,0.0,0.0,97,0.00,,---,0.04,VWS V14.01,2013-05-09 08:47:00,
2013-05-09 04:50:00,57.1,56.3,29.94,East,92,0.0,0.0,97,0.00,,---,0.04,VWS V14.01,2013-05-09 08:50:00,
2013-05-09 04:52:00,57.1,56.3,29.94,East,92,0.0,0.0,97,0.00,,---,0.04,VWS V14.01,2013-05-09 08:52:00,
2013-05-09 04:55:00,57.1,56.3,29.94,East,92,0.0,0.0,97,0.00,,---,0.04,VWS V14.01,2013-05-09 08:55:00,
2013-05-09 04:57:00,57.1,56.3,29.94,East,92,0.0,0.0,97,0.00,,---,0.04,VWS V14.01,2013-05-09 08:57:00,
2013-05-09 05:00:00,57.1,56.3,29.94,East,92,0.0,0.0,97,0.00,,---,0.04,VWS V14.01,2013-05-09 09:00:00,
2013-05-09 05:02:00,57.1,56.3,29.94,East,92,0.0,0.0,97,0.00,,---,0.04,VWS V14.01,2013-05-09 09:02:00,
2013-05-09 05:05:00,57.1,56.3,29.94,East,92,0.0,0.0,97,0.00,,---,0.04,VWS V14.01,2013-05-09 09:05:00,
2013-05-09 05:07:00,57.1,56.3,29.94,East,92,0.0,0.0,97,0.00,,---,0.04,VWS V14.01,2013-05-09 09:07:00,
2013-05-09 05:10:00,57.1,56.3,29.94,East,92,0.0,0.0,97,0.00,,---,0.04,VWS V14.01,2013-05-09 09:10:00,
2013-05-09 05:12:00,57.1,56.3,29.94,East,92,0.0,0.0,97,0.00,,---,0.04,VWS V14.01,2013-05-09 09:12:00,
2013-05-09 05:15:00,57.1,56.3,29.94,East,92,0.0,0.0,97,0.00,,---,0.04,VWS V14.01,2013-05-09 09:15:00,
2013-05-09 05:17:00,57.1,56.3,29.94,East,92,0.0,0.0,97,0.00,,---,0.04,VWS V14.01,2013-05-09 09:17:00,
2013-05-09 05:20:00,57.1,56.3,29.94,East,92,0.0,0.0,97,0.00,,---,0.04,VWS V14.01,2013-05-09 09:20:00,
2013-05-09 05:22:00,57.1,56.3,29.94,East,92,0.0,0.0,97,0.00,,---,0.04,VWS V14.01,2013-05-09 09:22:00,
2013-05-09 05:25:00,57.2,56.4,29.94,East,92,0.0,0.0,97,0.00,,---,0.04,VWS V14.01,2013-05-09 09:25:00,
2013-05-09 05:27:00,57.2,56.4,29.94,East,92,0.0,0.0,97,0.00,,---,0.04,VWS V14.01,2013-05-09 09:27:00,
2013-05-09 05:30:00,57.2,56.4,29.94,East,92,0.0,0.0,97,0.00,,---,0.04,VWS V14.01,2013-05-09 09:30:00,
2013-05-09 05:32:00,57.2,56.4,29.94,East,92,0.0,0.0,97,0.00,,---,0.04,VWS V14.01,2013-05-09 09:32:00,
2013-05-09 05:35:00,57.2,56.4,29.94,East,92,0.0,0.0,97,0.00,,---,0.04,VWS V14.01,2013-05-09 09:35:00,
2013-05-09 05:37:00,57.2,56.4,29.94,East,92,0.0,0.0,97,0.00,,---,0.04,VWS V14.01,2013-05-09 09:37:00,
2013-05-09 05:40:00,57.2,56.4,29.94,East,92,0.0,0.0,97,0.00,,---,0.04,VWS V14.01,2013-05-09 09:40:00,
2013-05-09 05:42:00,57.2,56.4,29.94,East,92,0.0,0.0,97,0.00,,---,0.04,VWS V14.01,2013-05-09 09:42:00,
2013-05-09 05:45:00,57.2,56.4,29.94,East,92,0.0,0.0,97,0.00,,---,0.04,VWS V14.01,2013-05-09 09:45:00,
2013-05-09 05:47:00,57.2,56.4,29.94,East,92,0.0,0.0,97,0.00,,---,0.04,VWS V14.01,2013-05-09 09:47:00,
2013-05-09 05:50:00,57.2,56.4,29.94,East,92,0.0,0.0,97,0.00,,---,0.04,VWS V14.01,2013-05-09 09:50:00,
2013-05-09 05:52:00,57.3,56.5,29.93,East,92,0.0,0.0,97,0.00,,---,0.04,VWS V14.01,2013-05-09 09:52:00,
2013-05-09 05:55:00,57.3,56.5,29.93,East,92,0.0,0.0,97,0.00,,---,0.04,VWS V14.01,2013-05-09 09:55:00,
2013-05-09 05:57:00,57.3,56.5,29.94,East,92,0.0,2.0,97,0.00,,---,0.04,VWS V14.01,2013-05-09 09:57:00,
2013-05-09 06:00:00,57.3,56.5,29.94,East,92,0.0,2.0,97,0.00,,---,0.04,VWS V14.01,2013-05-09 10:00:00,
2013-05-09 06:03:00,57.5,56.7,29.94,East,92,0.0,0.0,97,0.00,,---,0.04,VWS V14.01,2013-05-09 10:03:00,
2013-05-09 06:05:00,57.4,56.6,29.94,East,92,0.0,0.0,97,0.00,,---,0.04,VWS V14.01,2013-05-09 10:05:00,
2013-05-09 06:08:00,57.5,56.7,29.94,East,92,0.0,1.0,97,0.00,,---,0.04,VWS V14.01,2013-05-09 10:08:00,
2013-05-09 06:10:00,57.5,56.7,29.94,East,92,0.0,1.0,97,0.00,,---,0.04,VWS V14.01,2013-05-09 10:10:00,
2013-05-09 06:13:00,57.5,56.7,29.94,East,92,0.0,0.0,97,0.00,,---,0.04,VWS V14.01,2013-05-09 10:13:00,
2013-05-09 06:15:00,57.6,56.8,29.94,East,92,0.0,0.0,97,0.00,,---,0.04,VWS V14.01,2013-05-09 10:15:00,
2013-05-09 06:18:00,57.6,56.8,29.94,East,92,0.0,0.0,97,0.00,,---,0.04,VWS V14.01,2013-05-09 10:18:00,
2013-05-09 06:20:00,57.6,56.8,29.94,East,92,0.0,0.0,97,0.00,,---,0.04,VWS V14.01,2013-05-09 10:20:00,
2013-05-09 06:23:00,57.7,56.9,29.94,East,92,0.0,0.0,97,0.00,,---,0.04,VWS V14.01,2013-05-09 10:23:00,
2013-05-09 06:25:00,57.7,56.9,29.94,East,92,0.0,0.0,97,0.00,,---,0.04,VWS V14.01,2013-05-09 10:25:00,
2013-05-09 06:28:00,57.7,56.9,29.94,East,92,0.0,0.0,97,0.00,,---,0.04,VWS V14.01,2013-05-09 10:28:00,
2013-05-09 06:30:00,57.7,56.9,29.94,East,92,0.0,0.0,97,0.00,,---,0.04,VWS V14.01,2013-05-09 10:30:00,
2013-05-09 06:33:00,57.8,57.0,29.94,East,92,0.0,0.0,97,0.00,,---,0.04,VWS V14.01,2013-05-09 10:33:00,
2013-05-09 06:35:00,57.8,57.0,29.94,East,92,0.0,1.0,97,0.00,,---,0.04,VWS V14.01,2013-05-09 10:35:00,
2013-05-09 06:38:00,57.8,57.0,29.94,East,92,0.0,0.0,97,0.00,,---,0.04,VWS V14.01,2013-05-09 10:38:00,
2013-05-09 06:40:00,57.8,57.0,29.94,East,92,0.0,1.0,97,0.00,,---,0.04,VWS V14.01,2013-05-09 10:40:00,
2013-05-09 06:43:00,57.9,57.1,29.94,East,92,0.0,1.0,97,0.00,,---,0.04,VWS V14.01,2013-05-09 10:43:00,
2013-05-09 06:45:00,57.9,57.1,29.94,East,92,1.0,2.0,97,0.00,,---,0.04,VWS V14.01,2013-05-09 10:45:00,
2013-05-09 06:48:00,58.0,57.2,29.94,East,92,0.0,1.0,97,0.00,,---,0.04,VWS V14.01,2013-05-09 10:48:00,
2013-05-09 06:50:00,58.0,57.2,29.94,East,92,0.0,2.0,97,0.00,,---,0.04,VWS V14.01,2013-05-09 10:50:00,
2013-05-09 06:53:00,58.0,57.2,29.94,ENE,74,0.0,0.0,97,0.00,,---,0.04,VWS V14.01,2013-05-09 10:53:00,
2013-05-09 06:55:00,58.0,57.2,29.94,ENE,74,0.0,3.0,97,0.00,,---,0.04,VWS V14.01,2013-05-09 10:55:00,
2013-05-09 06:58:00,57.9,57.1,29.95,ENE,75,0.0,1.0,97,0.00,,---,0.04,VWS V14.01,2013-05-09 10:58:00,
2013-05-09 07:00:00,57.9,57.1,29.95,ENE,75,0.0,2.0,97,0.00,,---,0.04,VWS V14.01,2013-05-09 11:00:00,
2013-05-09 07:03:00,57.9,57.1,29.95,ENE,75,0.0,1.0,97,0.00,,---,0.04,VWS V14.01,2013-05-09 11:03:00,
2013-05-09 07:05:00,57.9,57.1,29.94,ENE,75,1.0,2.0,97,0.00,,---,0.04,VWS V14.01,2013-05-09 11:05:00,
2013-05-09 07:08:00,57.9,57.1,29.95,ENE,73,0.0,0.0,97,0.00,,---,0.04,VWS V14.01,2013-05-09 11:08:00,
2013-05-09 07:10:00,58.0,57.2,29.95,ENE,73,0.0,1.0,97,0.00,,---,0.04,VWS V14.01,2013-05-09 11:10:00,
2013-05-09 07:13:00,58.0,57.2,29.95,ENE,73,0.0,0.0,97,0.00,,---,0.04,VWS V14.01,2013-05-09 11:13:00,
2013-05-09 07:15:00,58.0,57.2,29.95,ENE,73,0.0,0.0,97,0.00,,---,0.04,VWS V14.01,2013-05-09 11:15:00,
2013-05-09 07:18:00,58.0,57.2,29.95,ENE,73,1.0,1.0,97,0.00,,---,0.04,VWS V14.01,2013-05-09 11:18:00,
2013-05-09 07:20:00,58.0,57.2,29.95,ENE,73,0.0,1.0,97,0.00,,---,0.04,VWS V14.01,2013-05-09 11:20:00,
2013-05-09 07:23:00,58.0,57.2,29.95,ENE,73,0.0,1.0,97,0.00,,---,0.04,VWS V14.01,2013-05-09 11:23:00,
2013-05-09 07:25:00,58.0,57.2,29.95,ENE,73,0.0,2.0,97,0.00,,---,0.04,VWS V14.01,2013-05-09 11:25:00,
2013-05-09 07:28:00,58.0,57.2,29.95,SE,125,0.0,2.0,97,0.00,,---,0.04,VWS V14.01,2013-05-09 11:28:00,
2013-05-09 07:30:00,58.0,57.2,29.95,SE,125,1.0,3.0,97,0.00,,---,0.04,VWS V14.01,2013-05-09 11:30:00,
2013-05-09 07:33:00,57.9,57.1,29.95,ENE,76,0.0,2.0,97,0.00,,---,0.04,VWS V14.01,2013-05-09 11:33:00,
2013-05-09 07:35:00,57.9,57.1,29.95,ENE,76,0.0,2.0,97,0.00,,---,0.04,VWS V14.01,2013-05-09 11:35:00,
2013-05-09 07:38:00,57.9,57.1,29.95,ENE,73,2.0,3.0,97,0.00,,---,0.04,VWS V14.01,2013-05-09 11:38:00,
2013-05-09 07:40:00,57.9,57.1,29.95,ENE,76,0.0,2.0,97,0.00,,---,0.04,VWS V14.01,2013-05-09 11:40:00,
2013-05-09 07:43:00,57.8,57.0,29.95,NE,51,0.0,2.0,97,0.00,,---,0.04,VWS V14.01,2013-05-09 11:43:00,
2013-05-09 07:45:00,57.8,57.0,29.95,ENE,57,2.0,3.0,97,0.00,,---,0.04,VWS V14.01,2013-05-09 11:45:00,
2013-05-09 07:48:00,57.9,57.1,29.95,NE,49,0.0,1.0,97,0.00,,---,0.04,VWS V14.01,2013-05-09 11:48:00,
2013-05-09 07:50:00,57.9,57.1,29.95,NE,49,0.0,2.0,97,0.00,,---,0.04,VWS V14.01,2013-05-09 11:50:00,
2013-05-09 07:54:00,58.1,57.3,29.95,NE,49,0.0,1.0,97,0.00,,---,0.04,VWS V14.01,2013-05-09 11:54:00,
2013-05-09 07:55:00,58.0,57.2,29.95,NE,49,0.0,1.0,97,0.00,,---,0.04,VWS V14.01,2013-05-09 11:55:00,
2013-05-09 07:59:00,58.1,57.3,29.96,East,90,1.0,3.0,97,0.00,,---,0.04,VWS V14.01,2013-05-09 11:59:00,
2013-05-09 08:00:00,58.1,57.3,29.96,East,96,2.0,3.0,97,0.00,,---,0.04,VWS V14.01,2013-05-09 12:00:00,
2013-05-09 08:04:00,58.0,57.2,29.95,ENE,71,0.0,0.0,97,0.00,,---,0.04,VWS V14.01,2013-05-09 12:04:00,
2013-05-09 08:05:00,58.0,57.2,29.96,ENE,71,0.0,3.0,97,0.00,,---,0.04,VWS V14.01,2013-05-09 12:05:00,
2013-05-09 08:09:00,58.1,57.3,29.96,East,94,2.0,2.0,97,0.00,,---,0.04,VWS V14.01,2013-05-09 12:09:00,
2013-05-09 08:10:00,58.1,57.3,29.96,East,94,1.0,2.0,97,0.00,,---,0.04,VWS V14.01,2013-05-09 12:10:00,
2013-05-09 08:14:00,58.1,57.3,29.96,East,94,0.0,0.0,97,0.00,,---,0.04,VWS V14.01,2013-05-09 12:14:00,
2013-05-09 08:15:00,58.1,57.3,29.96,East,95,0.0,2.0,97,0.00,,---,0.04,VWS V14.01,2013-05-09 12:15:00,
2013-05-09 08:19:00,58.2,57.4,29.95,East,94,0.0,0.0,97,0.00,,---,0.04,VWS V14.01,2013-05-09 12:19:00,
2013-05-09 08:20:00,58.1,57.3,29.95,East,94,0.0,1.0,97,0.00,,---,0.04,VWS V14.01,2013-05-09 12:20:00,
2013-05-09 08:24:00,58.2,57.4,29.95,East,95,0.0,0.0,97,0.00,,---,0.04,VWS V14.01,2013-05-09 12:24:00,
2013-05-09 08:25:00,58.2,57.4,29.95,East,94,0.0,0.0,97,0.00,,---,0.04,VWS V14.01,2013-05-09 12:25:00,
2013-05-09 08:29:00,58.2,57.4,29.94,East,94,0.0,0.0,97,0.00,,---,0.04,VWS V14.01,2013-05-09 12:29:00,
2013-05-09 08:30:00,58.2,57.4,29.95,East,94,0.0,0.0,97,0.00,,---,0.04,VWS V14.01,2013-05-09 12:30:00,
2013-05-09 08:34:00,58.2,57.4,29.95,East,94,0.0,0.0,97,0.00,,---,0.04,VWS V14.01,2013-05-09 12:34:00,
2013-05-09 08:35:00,58.2,57.4,29.95,East,94,0.0,1.0,97,0.00,,---,0.04,VWS V14.01,2013-05-09 12:35:00,
2013-05-09 08:39:00,58.3,57.5,29.94,East,95,0.0,0.0,97,0.00,,---,0.04,VWS V14.01,2013-05-09 12:39:00,
2013-05-09 08:40:00,58.3,57.5,29.94,East,94,0.0,2.0,97,0.00,,---,0.04,VWS V14.01,2013-05-09 12:40:00,
2013-05-09 08:44:00,58.4,57.6,29.94,East,94,0.0,0.0,97,0.00,,---,0.04,VWS V14.01,2013-05-09 12:44:00,
2013-05-09 08:45:00,58.4,57.6,29.94,East,94,0.0,0.0,97,0.00,,---,0.04,VWS V14.01,2013-05-09 12:45:00,
2013-05-09 08:49:00,58.5,57.7,29.94,East,94,0.0,0.0,97,0.00,,---,0.04,VWS V14.01,2013-05-09 12:49:00,
2013-05-09 08:50:00,58.5,57.7,29.94,East,94,0.0,0.0,97,0.00,,---,0.04,VWS V14.01,2013-05-09 12:50:00,
2013-05-09 08:54:00,58.5,57.7,29.95,East,94,0.0,0.0,97,0.00,,---,0.04,VWS V14.01,2013-05-09 12:54:00,
2013-05-09 08:55:00,58.5,57.7,29.95,East,94,0.0,0.0,97,0.00,,---,0.04,VWS V14.01,2013-05-09 12:55:00,
2013-05-09 08:59:00,58.6,57.8,29.95,East,95,0.0,1.0,97,0.00,,---,0.04,VWS V14.01,2013-05-09 12:59:00,
2013-05-09 09:00:00,58.5,57.7,29.95,East,95,1.0,1.0,97,0.00,,---,0.04,VWS V14.01,2013-05-09 13:00:00,
2013-05-09 09:04:00,58.7,57.8,29.95,East,95,0.0,0.0,97,0.00,,---,0.04,VWS V14.01,2013-05-09 13:04:00,
2013-05-09 09:05:00,58.7,57.8,29.95,East,95,0.0,1.0,97,0.00,,---,0.04,VWS V14.01,2013-05-09 13:05:00,
2013-05-09 09:09:00,59.0,58.2,29.95,East,95,0.0,1.0,97,0.00,,---,0.04,VWS V14.01,2013-05-09 13:09:00,
2013-05-09 09:10:00,58.9,58.0,29.95,East,95,1.0,1.0,97,0.00,,---,0.04,VWS V14.01,2013-05-09 13:10:00,
2013-05-09 09:14:00,59.0,58.2,29.94,East,95,0.0,1.0,97,0.00,,---,0.04,VWS V14.01,2013-05-09 13:14:00,
2013-05-09 09:15:00,59.0,58.2,29.94,East,95,0.0,1.0,97,0.00,,---,0.04,VWS V14.01,2013-05-09 13:15:00,
2013-05-09 09:19:00,59.0,58.2,29.95,East,95,0.0,0.0,97,0.00,,---,0.04,VWS V14.01,2013-05-09 13:19:00,
2013-05-09 09:20:00,59.0,58.2,29.95,East,95,0.0,2.0,97,0.00,,---,0.04,VWS V14.01,2013-05-09 13:20:00,
2013-05-09 09:24:00,59.0,58.2,29.95,East,95,0.0,1.0,97,0.00,,---,0.04,VWS V14.01,2013-05-09 13:24:00,
2013-05-09 09:25:00,59.0,58.2,29.95,East,95,1.0,1.0,97,0.00,,---,0.04,VWS V14.01,2013-05-09 13:25:00,
2013-05-09 09:29:00,59.0,58.2,29.94,East,95,0.0,0.0,97,0.00,,---,0.04,VWS V14.01,2013-05-09 13:29:00,
2013-05-09 09:30:00,59.0,58.2,29.95,East,95,0.0,1.0,97,0.00,,---,0.04,VWS V14.01,2013-05-09 13:30:00,
2013-05-09 09:34:00,59.0,58.2,29.95,East,95,0.0,0.0,97,0.00,,---,0.04,VWS V14.01,2013-05-09 13:34:00,
2013-05-09 09:35:00,59.0,58.2,29.95,East,95,0.0,0.0,97,0.00,,---,0.04,VWS V14.01,2013-05-09 13:35:00,
2013-05-09 09:39:00,59.0,58.2,29.95,East,95,0.0,1.0,97,0.00,,---,0.04,VWS V14.01,2013-05-09 13:39:00,
2013-05-09 09:40:00,59.0,58.2,29.95,East,95,0.0,1.0,97,0.00,,---,0.04,VWS V14.01,2013-05-09 13:40:00,
2013-05-09 09:44:00,59.0,58.2,29.94,East,94,0.0,0.0,97,0.00,,---,0.04,VWS V14.01,2013-05-09 13:44:00,
2013-05-09 09:45:00,59.0,58.2,29.95,East,94,0.0,2.0,97,0.00,,---,0.04,VWS V14.01,2013-05-09 13:45:00,
2013-05-09 09:49:00,59.0,58.2,29.94,East,94,0.0,0.0,97,0.00,,---,0.04,VWS V14.01,2013-05-09 13:49:00,
2013-05-09 09:50:00,59.0,58.2,29.94,East,94,0.0,0.0,97,0.00,,---,0.04,VWS V14.01,2013-05-09 13:50:00,
2013-05-09 09:55:00,59.2,58.3,29.94,East,94,0.0,2.0,97,0.00,,---,0.04,VWS V14.01,2013-05-09 13:55:00,
2013-05-09 10:00:00,59.4,58.5,29.94,East,94,0.0,0.0,97,0.00,,---,0.04,VWS V14.01,2013-05-09 14:00:00,
2013-05-09 10:05:00,59.5,58.7,29.94,East,94,1.0,2.0,97,0.00,,---,0.04,VWS V14.01,2013-05-09 14:05:00,
2013-05-09 10:10:00,59.6,58.8,29.94,East,94,0.0,3.0,97,0.00,,---,0.04,VWS V14.01,2013-05-09 14:10:00,
2013-05-09 10:15:00,59.7,58.8,29.94,East,82,0.0,1.0,97,0.00,,---,0.04,VWS V14.01,2013-05-09 14:15:00,
2013-05-09 10:20:00,59.8,59.0,29.94,East,82,0.0,0.0,97,0.00,,---,0.04,VWS V14.01,2013-05-09 14:20:00,
2013-05-09 10:25:00,60.0,59.2,29.94,East,82,0.0,0.0,97,0.00,,---,0.04,VWS V14.01,2013-05-09 14:25:00,
2013-05-09 10:30:00,60.0,59.2,29.94,East,82,0.0,0.0,97,0.00,,---,0.04,VWS V14.01,2013-05-09 14:30:00,
2013-05-09 10:35:00,60.2,59.3,29.94,East,82,0.0,0.0,97,0.00,,---,0.04,VWS V14.01,2013-05-09 14:35:00,
2013-05-09 10:40:00,60.4,59.5,29.94,East,82,0.0,0.0,97,0.00,,---,0.04,VWS V14.01,2013-05-09 14:40:00,
2013-05-09 10:45:00,60.6,59.8,29.94,East,96,0.0,0.0,97,0.00,,---,0.04,VWS V14.01,2013-05-09 14:45:00,
2013-05-09 10:50:00,60.7,59.8,29.94,East,96,0.0,0.0,97,0.00,,---,0.04,VWS V14.01,2013-05-09 14:50:00,
2013-05-09 10:55:00,60.8,60.0,29.94,East,96,0.0,0.0,97,0.00,,---,0.04,VWS V14.01,2013-05-09 14:55:00,
2013-05-09 11:00:00,60.8,60.0,29.94,South,186,0.0,2.0,97,0.00,,---,0.04,VWS V14.01,2013-05-09 15:00:00,
2013-05-09 11:05:00,60.9,60.0,29.93,WSW,248,0.0,3.0,97,0.00,,---,0.04,VWS V14.01,2013-05-09 15:05:00,
2013-05-09 11:10:00,61.0,60.2,29.93,WSW,248,0.0,1.0,97,0.00,,---,0.04,VWS V14.01,2013-05-09 15:10:00,
2013-05-09 11:15:00,61.2,60.3,29.94,WSW,248,1.0,2.0,97,0.00,,---,0.04,VWS V14.01,2013-05-09 15:15:00,
2013-05-09 11:20:00,61.4,60.5,29.93,NNE,17,0.0,3.0,97,0.00,,---,0.04,VWS V14.01,2013-05-09 15:20:00,
2013-05-09 11:25:00,61.5,60.6,29.93,NNE,17,0.0,0.0,97,0.00,,---,0.04,VWS V14.01,2013-05-09 15:25:00,
2013-05-09 11:30:00,61.6,60.5,29.93,NNE,17,0.0,1.0,96,0.00,,---,0.04,VWS V14.01,2013-05-09 15:30:00,
2013-05-09 11:35:00,61.7,60.5,29.93,NNE,17,0.0,0.0,96,0.00,,---,0.04,VWS V14.01,2013-05-09 15:35:00,
2013-05-09 11:40:00,61.6,60.5,29.93,NNE,17,0.0,0.0,96,0.00,,---,0.04,VWS V14.01,2013-05-09 15:40:00,
2013-05-09 11:41:00,61.7,60.5,29.93,NNE,17,0.0,0.0,96,0.00,,---,0.04,VWS V14.01,2013-05-09 15:41:00,
2013-05-09 11:45:00,61.7,60.5,29.93,NNE,17,0.0,0.0,96,0.00,,---,0.04,VWS V14.01,2013-05-09 15:45:00,
2013-05-09 11:46:00,61.6,60.2,29.93,NNE,17,0.0,0.0,95,0.00,,---,0.04,VWS V14.01,2013-05-09 15:46:00,
2013-05-09 11:50:00,61.6,60.2,29.93,NNE,17,0.0,0.0,95,0.01,,---,0.05,VWS V14.01,2013-05-09 15:50:00,
2013-05-09 11:51:00,61.6,60.2,29.93,NNE,17,0.0,0.0,95,0.01,,---,0.05,VWS V14.01,2013-05-09 15:51:00,
2013-05-09 11:55:00,61.6,60.2,29.93,NNE,17,0.0,0.0,95,0.01,,---,0.05,VWS V14.01,2013-05-09 15:55:00,
2013-05-09 11:56:00,61.6,60.2,29.93,NNE,17,0.0,0.0,95,0.01,,---,0.05,VWS V14.01,2013-05-09 15:56:00,
2013-05-09 12:00:00,61.7,60.3,29.93,NNE,17,0.0,0.0,95,0.01,,---,0.05,VWS V14.01,2013-05-09 16:00:00,
2013-05-09 12:01:00,61.7,60.3,29.93,NNE,17,0.0,0.0,95,0.01,,---,0.05,VWS V14.01,2013-05-09 16:01:00,
2013-05-09 12:05:00,61.7,60.3,29.93,NNE,17,0.0,0.0,95,0.01,,---,0.05,VWS V14.01,2013-05-09 16:05:00,
2013-05-09 12:06:00,61.7,60.3,29.93,NNE,17,0.0,0.0,95,0.02,,---,0.06,VWS V14.01,2013-05-09 16:06:00,
2013-05-09 12:10:00,61.8,60.4,29.93,NNE,17,0.0,0.0,95,0.02,,---,0.06,VWS V14.01,2013-05-09 16:10:00,
2013-05-09 12:11:00,61.8,60.4,29.93,NNE,17,0.0,0.0,95,0.02,,---,0.06,VWS V14.01,2013-05-09 16:11:00,
2013-05-09 12:15:00,61.9,60.5,29.93,NNE,17,0.0,0.0,95,0.02,,---,0.06,VWS V14.01,2013-05-09 16:15:00,
2013-05-09 12:16:00,61.9,60.5,29.93,NNE,17,0.0,0.0,95,0.02,,---,0.06,VWS V14.01,2013-05-09 16:16:00,
2013-05-09 12:20:00,61.9,60.5,29.93,NNE,17,0.0,0.0,95,0.02,,---,0.06,VWS V14.01,2013-05-09 16:20:00,
2013-05-09 12:21:00,62.0,60.6,29.93,NNE,17,0.0,1.0,95,0.03,,---,0.07,VWS V14.01,2013-05-09 16:21:00,
2013-05-09 12:25:00,62.0,60.6,29.93,NNE,17,0.0,1.0,95,0.03,,---,0.07,VWS V14.01,2013-05-09 16:25:00,
2013-05-09 12:26:00,62.2,60.8,29.93,NNE,17,0.0,1.0,95,0.04,,---,0.08,VWS V14.01,2013-05-09 16:26:00,
2013-05-09 12:30:00,62.1,60.7,29.93,NNE,17,0.0,2.0,95,0.04,,---,0.08,VWS V14.01,2013-05-09 16:30:00,
2013-05-09 12:31:00,62.0,60.6,29.93,NNE,17,0.0,2.0,95,0.04,,---,0.08,VWS V14.01,2013-05-09 16:31:00,
2013-05-09 12:35:00,62.0,60.6,29.93,NNE,17,0.0,2.0,95,0.05,,---,0.09,VWS V14.01,2013-05-09 16:35:00,
2013-05-09 12:36:00,61.9,60.5,29.93,NNE,17,0.0,0.0,95,0.05,,---,0.09,VWS V14.01,2013-05-09 16:36:00,
2013-05-09 12:40:00,61.9,60.5,29.93,NNE,17,0.0,1.0,95,0.05,,---,0.09,VWS V14.01,2013-05-09 16:40:00,
2013-05-09 12:41:00,61.8,60.4,29.93,West,271,0.0,2.0,95,0.06,,---,0.10,VWS V14.01,2013-05-09 16:41:00,
2013-05-09 12:45:00,61.8,60.4,29.93,West,271,0.0,2.0,95,0.06,,---,0.10,VWS V14.01,2013-05-09 16:45:00,
2013-05-09 12:46:00,61.7,60.3,29.93,West,271,0.0,0.0,95,0.07,,---,0.11,VWS V14.01,2013-05-09 16:46:00,
2013-05-09 12:50:00,61.7,60.3,29.93,West,271,0.0,0.0,95,0.07,,---,0.11,VWS V14.01,2013-05-09 16:50:00,
2013-05-09 12:51:00,61.7,60.3,29.93,West,271,0.0,0.0,95,0.08,,---,0.13,VWS V14.01,2013-05-09 16:51:00,
2013-05-09 12:55:00,61.7,60.3,29.93,West,271,0.0,0.0,95,0.09,,---,0.14,VWS V14.01,2013-05-09 16:55:00,
2013-05-09 12:56:00,61.7,60.3,29.93,West,271,0.0,2.0,95,0.09,,---,0.14,VWS V14.01,2013-05-09 16:56:00,
2013-05-09 13:00:00,61.7,60.3,29.93,West,271,1.0,2.0,95,0.10,,---,0.15,VWS V14.01,2013-05-09 17:00:00,
2013-05-09 13:01:00,61.7,60.3,29.93,SSW,196,1.0,2.0,95,0.11,,---,0.16,VWS V14.01,2013-05-09 17:01:00,
2013-05-09 13:05:00,61.6,60.2,29.93,SE,133,1.0,3.0,95,0.11,,---,0.16,VWS V14.01,2013-05-09 17:05:00,
2013-05-09 13:06:00,61.5,60.1,29.92,SE,133,0.0,2.0,95,0.12,,---,0.17,VWS V14.01,2013-05-09 17:06:00,
2013-05-09 13:10:00,61.4,60.0,29.92,SE,133,0.0,2.0,95,0.12,,---,0.17,VWS V14.01,2013-05-09 17:10:00,
2013-05-09 13:11:00,61.4,60.0,29.92,SE,133,0.0,1.0,95,0.12,,---,0.18,VWS V14.01,2013-05-09 17:11:00,
2013-05-09 13:15:00,61.4,60.0,29.92,SE,133,0.0,1.0,95,0.13,,---,0.19,VWS V14.01,2013-05-09 17:15:00,
2013-05-09 13:16:00,61.3,59.9,29.92,SE,133,0.0,0.0,95,0.14,,---,0.20,VWS V14.01,2013-05-09 17:16:00,
2013-05-09 13:20:00,61.3,59.9,29.92,SE,133,0.0,0.0,95,0.14,,---,0.20,VWS V14.01,2013-05-09 17:20:00,
2013-05-09 13:21:00,61.2,59.8,29.92,SE,133,0.0,0.0,95,0.15,,---,0.21,VWS V14.01,2013-05-09 17:21:00,
2013-05-09 13:25:00,61.2,59.8,29.92,SE,133,0.0,0.0,95,0.16,,---,0.22,VWS V14.01,2013-05-09 17:25:00,
2013-05-09 13:26:00,61.0,59.6,29.92,SE,133,0.0,0.0,95,0.16,,---,0.23,VWS V14.01,2013-05-09 17:26:00,
2013-05-09 13:30:00,61.0,59.6,29.92,SE,133,0.0,0.0,95,0.16,,---,0.23,VWS V14.01,2013-05-09 17:30:00,
2013-05-09 13:31:00,60.9,59.5,29.91,SE,133,0.0,2.0,95,0.16,,---,0.24,VWS V14.01,2013-05-09 17:31:00,
2013-05-09 13:35:00,60.9,59.5,29.91,SE,133,1.0,2.0,95,0.16,,---,0.24,VWS V14.01,2013-05-09 17:35:00,
2013-05-09 13:36:00,60.9,59.5,29.91,ENE,78,3.0,3.0,95,0.17,,---,0.26,VWS V14.01,2013-05-09 17:36:00,
2013-05-09 13:40:00,60.9,59.5,29.91,ENE,78,0.0,3.0,95,0.17,,---,0.26,VWS V14.01,2013-05-09 17:40:00,
2013-05-09 13:42:00,60.8,59.4,29.90,ENE,67,1.0,4.0,95,0.18,,---,0.27,VWS V14.01,2013-05-09 17:42:00,
2013-05-09 13:45:00,60.8,59.4,29.90,ENE,67,0.0,4.0,95,0.18,,---,0.27,VWS V14.01,2013-05-09 17:45:00,
2013-05-09 13:47:00,60.8,59.7,29.89,ENE,63,0.0,3.0,96,0.18,,---,0.28,VWS V14.01,2013-05-09 17:47:00,
2013-05-09 13:50:00,60.7,59.6,29.88,ENE,63,0.0,3.0,96,0.18,,---,0.28,VWS V14.01,2013-05-09 17:50:00,
2013-05-09 13:52:00,60.7,59.6,29.88,ENE,65,2.0,6.0,96,0.17,,---,0.28,VWS V14.01,2013-05-09 17:52:00,
2013-05-09 13:55:00,60.7,59.6,29.88,ENE,76,1.0,6.0,96,0.17,,---,0.28,VWS V14.01,2013-05-09 17:55:00,
2013-05-09 13:57:00,60.7,59.6,29.88,East,79,0.0,2.0,96,0.15,,---,0.29,VWS V14.01,2013-05-09 17:57:00,
2013-05-09 14:00:00,60.6,59.5,29.88,East,79,0.0,2.0,96,0.15,,---,0.29,VWS V14.01,2013-05-09 18:00:00,
2013-05-09 14:02:00,60.6,59.5,29.89,East,96,0.0,2.0,96,0.14,,---,0.29,VWS V14.01,2013-05-09 18:02:00,
2013-05-09 14:05:00,60.6,59.5,29.89,ESE,115,2.0,2.0,96,0.14,,---,0.29,VWS V14.01,2013-05-09 18:05:00,
2013-05-09 14:07:00,60.8,59.7,29.90,SSW,209,0.0,5.0,96,0.14,,---,0.30,VWS V14.01,2013-05-09 18:07:00,
2013-05-09 14:10:00,60.8,59.7,29.90,SSW,209,1.0,5.0,96,0.14,,---,0.30,VWS V14.01,2013-05-09 18:10:00,
2013-05-09 14:12:00,61.0,59.9,29.90,SSW,209,0.0,2.0,96,0.13,,---,0.30,VWS V14.01,2013-05-09 18:12:00,
2013-05-09 14:15:00,61.0,59.8,29.90,SSW,209,0.0,2.0,96,0.13,,---,0.30,VWS V14.01,2013-05-09 18:15:00,
2013-05-09 14:17:00,61.0,59.9,29.90,SSW,209,0.0,1.0,96,0.11,,---,0.30,VWS V14.01,2013-05-09 18:17:00,
2013-05-09 14:20:00,61.0,59.8,29.90,SSW,209,1.0,1.0,96,0.11,,---,0.30,VWS V14.01,2013-05-09 18:20:00,
2013-05-09 14:22:00,61.1,60.0,29.89,SSW,209,0.0,1.0,96,0.10,,---,0.30,VWS V14.01,2013-05-09 18:22:00,
2013-05-09 14:25:00,61.2,60.3,29.89,SSW,209,0.0,1.0,97,0.10,,---,0.30,VWS V14.01,2013-05-09 18:25:00,
2013-05-09 14:27:00,62.7,61.8,29.89,SSW,209,0.0,1.0,97,0.08,,---,0.30,VWS V14.01,2013-05-09 18:27:00,
2013-05-09 14:30:00,62.8,61.9,29.89,SSW,209,0.0,1.0,97,0.08,,---,0.30,VWS V14.01,2013-05-09 18:30:00,
2013-05-09 14:32:00,64.4,63.5,29.89,ESE,104,0.0,4.0,97,0.07,,---,0.30,VWS V14.01,2013-05-09 18:32:00,
2013-05-09 14:35:00,64.3,63.4,29.89,ESE,110,1.0,4.0,97,0.07,,---,0.30,VWS V14.01,2013-05-09 18:35:00,
2013-05-09 14:37:00,63.2,62.3,29.89,SE,125,1.0,5.0,97,0.06,,---,0.30,VWS V14.01,2013-05-09 18:37:00,
2013-05-09 14:40:00,63.2,62.3,29.89,SE,125,0.0,5.0,97,0.06,,---,0.30,VWS V14.01,2013-05-09 18:40:00,
2013-05-09 14:42:00,62.8,61.7,29.89,SE,136,1.0,2.0,96,0.04,,---,0.30,VWS V14.01,2013-05-09 18:42:00,
2013-05-09 14:45:00,62.8,61.7,29.89,ESE,114,2.0,2.0,96,0.04,,---,0.30,VWS V14.01,2013-05-09 18:45:00,
2013-05-09 14:47:00,62.8,61.7,29.89,SE,138,1.0,2.0,96,0.03,,---,0.30,VWS V14.01,2013-05-09 18:47:00,
2013-05-09 14:50:00,62.8,61.7,29.89,SE,138,0.0,2.0,96,0.03,,---,0.30,VWS V14.01,2013-05-09 18:50:00,
2013-05-09 14:53:00,63.2,62.3,29.89,SE,132,0.0,2.0,97,0.02,,---,0.30,VWS V14.01,2013-05-09 18:53:00,
2013-05-09 14:55:00,63.2,62.3,29.89,SE,132,0.0,2.0,97,0.02,,---,0.30,VWS V14.01,2013-05-09 18:55:00,
2013-05-09 14:58:00,64.0,63.1,29.88,South,175,2.0,3.0,97,0.02,,---,0.30,VWS V14.01,2013-05-09 18:58:00,
2013-05-09 15:00:00,64.1,62.9,29.88,South,175,1.0,3.0,96,0.02,,---,0.30,VWS V14.01,2013-05-09 19:00:00,
2013-05-09 15:03:00,64.7,63.2,29.88,South,172,0.0,2.0,95,0.01,,---,0.30,VWS V14.01,2013-05-09 19:03:00,
2013-05-09 15:05:00,64.7,63.2,29.88,South,172,0.0,2.0,95,0.01,,---,0.30,VWS V14.01,2013-05-09 19:05:00,
2013-05-09 15:08:00,64.9,63.1,29.88,ESE,102,3.0,3.0,94,0.01,,---,0.30,VWS V14.01,2013-05-09 19:08:00,
2013-05-09 15:10:00,64.9,63.1,29.88,ESE,102,3.0,3.0,94,0.01,,---,0.30,VWS V14.01,2013-05-09 19:10:00,
2013-05-09 15:13:00,66.0,63.6,29.88,SE,128,1.0,5.0,92,0.00,,---,0.30,VWS V14.01,2013-05-09 19:13:00,
2013-05-09 15:15:00,66.0,63.6,29.88,SE,128,1.0,5.0,92,0.00,,---,0.30,VWS V14.01,2013-05-09 19:15:00,
2013-05-09 15:18:00,65.7,63.0,29.88,ESE,114,3.0,6.0,91,0.00,,---,0.30,VWS V14.01,2013-05-09 19:18:00,
2013-05-09 15:20:00,65.7,63.0,29.88,ESE,114,3.0,6.0,91,0.00,,---,0.30,VWS V14.01,2013-05-09 19:20:00,
2013-05-09 15:23:00,66.0,62.7,29.88,SSE,157,3.0,5.0,89,0.00,,---,0.30,VWS V14.01,2013-05-09 19:23:00,
2013-05-09 15:25:00,66.0,62.7,29.88,SSE,157,3.0,5.0,89,0.00,,---,0.30,VWS V14.01,2013-05-09 19:25:00,
2013-05-09 15:28:00,65.9,62.6,29.87,SE,130,1.0,5.0,89,0.00,,---,0.30,VWS V14.01,2013-05-09 19:28:00,
2013-05-09 15:30:00,65.9,62.6,29.87,SE,130,1.0,5.0,89,0.00,,---,0.30,VWS V14.01,2013-05-09 19:30:00,
2013-05-09 15:33:00,65.7,62.4,29.87,South,186,1.0,3.0,89,0.00,,---,0.30,VWS V14.01,2013-05-09 19:33:00,
2013-05-09 15:35:00,65.7,62.4,29.87,South,186,1.0,3.0,89,0.00,,---,0.30,VWS V14.01,2013-05-09 19:35:00,
2013-05-09 15:38:00,65.8,62.5,29.87,ENE,71,0.0,3.0,89,0.00,,---,0.30,VWS V14.01,2013-05-09 19:38:00,
2013-05-09 15:40:00,65.8,62.5,29.87,ENE,71,0.0,3.0,89,0.00,,---,0.30,VWS V14.01,2013-05-09 19:40:00,
2013-05-09 15:43:00,66.1,63.1,29.86,SE,131,3.0,5.0,90,0.00,,---,0.30,VWS V14.01,2013-05-09 19:43:00,
2013-05-09 15:45:00,66.1,63.1,29.86,SE,131,3.0,5.0,90,0.00,,---,0.30,VWS V14.01,2013-05-09 19:45:00,
2013-05-09 15:48:00,66.8,64.1,29.86,SE,130,0.0,5.0,91,0.00,,---,0.30,VWS V14.01,2013-05-09 19:48:00,
2013-05-09 15:50:00,66.8,64.1,29.86,SE,130,0.0,5.0,91,0.00,,---,0.30,VWS V14.01,2013-05-09 19:50:00,
2013-05-09 15:53:00,67.6,64.2,29.86,SE,124,4.0,6.0,89,0.00,,---,0.30,VWS V14.01,2013-05-09 19:53:00,
2013-05-09 15:55:00,67.6,64.2,29.86,SE,124,4.0,6.0,89,0.00,,---,0.30,VWS V14.01,2013-05-09 19:55:00,
2013-05-09 15:58:00,67.6,62.9,29.86,East,89,3.0,4.0,85,0.00,,---,0.30,VWS V14.01,2013-05-09 19:58:00,
2013-05-09 16:00:00,67.6,62.9,29.86,East,89,3.0,4.0,85,0.00,,---,0.30,VWS V14.01,2013-05-09 20:00:00,
2013-05-09 16:03:00,67.3,62.0,29.86,SE,132,4.0,6.0,83,0.00,,---,0.30,VWS V14.01,2013-05-09 20:03:00,
2013-05-09 16:05:00,67.3,62.0,29.86,SE,132,4.0,6.0,83,0.00,,---,0.30,VWS V14.01,2013-05-09 20:05:00,
2013-05-09 16:08:00,67.2,62.5,29.86,SSE,155,0.0,4.0,85,0.00,,---,0.30,VWS V14.01,2013-05-09 20:08:00,
2013-05-09 16:10:00,67.2,62.5,29.86,SSE,155,0.0,4.0,85,0.00,,---,0.30,VWS V14.01,2013-05-09 20:10:00,
2013-05-09 16:13:00,66.9,62.6,29.86,SE,128,2.0,4.0,86,0.00,,---,0.30,VWS V14.01,2013-05-09 20:13:00,
2013-05-09 16:15:00,66.9,62.6,29.86,SE,128,2.0,4.0,86,0.00,,---,0.30,VWS V14.01,2013-05-09 20:15:00,
2013-05-09 16:18:00,66.7,62.4,29.86,SE,131,1.0,4.0,86,0.00,,---,0.30,VWS V14.01,2013-05-09 20:18:00,
2013-05-09 16:20:00,66.7,62.4,29.86,SE,131,1.0,4.0,86,0.00,,---,0.30,VWS V14.01,2013-05-09 20:20:00,
2013-05-09 16:23:00,66.6,62.0,29.85,ESE,108,1.0,3.0,85,0.00,,---,0.30,VWS V14.01,2013-05-09 20:23:00,
2013-05-09 16:25:00,66.6,62.0,29.85,ESE,108,1.0,3.0,85,0.00,,---,0.30,VWS V14.01,2013-05-09 20:25:00,
2013-05-09 16:28:00,66.5,61.9,29.85,SE,126,2.0,5.0,85,0.00,,---,0.30,VWS V14.01,2013-05-09 20:28:00,
2013-05-09 16:30:00,66.5,61.9,29.85,ESE,117,5.0,6.0,85,0.00,,---,0.30,VWS V14.01,2013-05-09 20:30:00,
2013-05-09 16:33:00,66.2,61.6,29.85,East,82,1.0,2.0,85,0.00,,---,0.30,VWS V14.01,2013-05-09 20:33:00,
2013-05-09 16:35:00,66.3,61.7,29.85,East,82,1.0,5.0,85,0.00,,---,0.30,VWS V14.01,2013-05-09 20:35:00,
2013-05-09 16:38:00,66.0,61.7,29.85,East,85,1.0,1.0,86,0.00,,---,0.30,VWS V14.01,2013-05-09 20:38:00,
2013-05-09 16:40:00,66.0,61.7,29.85,East,85,0.0,3.0,86,0.00,,---,0.30,VWS V14.01,2013-05-09 20:40:00,
2013-05-09 16:43:00,66.1,62.5,29.85,East,86,0.0,0.0,88,0.00,,---,0.30,VWS V14.01,2013-05-09 20:43:00,
2013-05-09 16:45:00,66.1,62.8,29.85,East,86,0.0,3.0,89,0.00,,---,0.30,VWS V14.01,2013-05-09 20:45:00,
2013-05-09 16:48:00,66.0,62.3,29.85,SE,146,2.0,2.0,88,0.00,,---,0.30,VWS V14.01,2013-05-09 20:48:00,
2013-05-09 16:50:00,66.1,62.5,29.86,SE,146,0.0,4.0,88,0.00,,---,0.30,VWS V14.01,2013-05-09 20:50:00,
2013-05-09 16:53:00,65.8,62.2,29.85,NE,51,1.0,4.0,88,0.00,,---,0.30,VWS V14.01,2013-05-09 20:53:00,
2013-05-09 16:55:00,65.8,62.2,29.85,NE,47,3.0,4.0,88,0.00,,---,0.30,VWS V14.01,2013-05-09 20:55:00,
2013-05-09 16:58:00,65.6,61.6,29.85,NE,51,0.0,0.0,87,0.00,,---,0.30,VWS V14.01,2013-05-09 20:58:00,
2013-05-09 17:00:00,65.6,61.6,29.85,NE,51,0.0,4.0,87,0.00,,---,0.30,VWS V14.01,2013-05-09 21:00:00,
2013-05-09 17:03:00,65.2,61.6,29.86,ESE,119,1.0,4.0,88,0.00,,---,0.30,VWS V14.01,2013-05-09 21:03:00,
2013-05-09 17:05:00,65.3,61.7,29.85,ESE,120,2.0,4.0,88,0.00,,---,0.30,VWS V14.01,2013-05-09 21:05:00,
2013-05-09 17:08:00,64.8,61.2,29.85,ESE,109,0.0,1.0,88,0.00,,---,0.30,VWS V14.01,2013-05-09 21:08:00,
2013-05-09 17:10:00,64.8,61.2,29.85,ESE,109,0.0,6.0,88,0.00,,---,0.30,VWS V14.01,2013-05-09 21:10:00,
2013-05-09 17:13:00,64.3,61.0,29.85,ENE,63,2.0,2.0,89,0.00,,---,0.30,VWS V14.01,2013-05-09 21:13:00,
2013-05-09 17:15:00,64.4,61.1,29.85,ENE,63,0.0,4.0,89,0.00,,---,0.30,VWS V14.01,2013-05-09 21:15:00,
2013-05-09 17:18:00,64.0,60.7,29.85,ESE,105,1.0,4.0,89,0.00,,---,0.30,VWS V14.01,2013-05-09 21:18:00,
2013-05-09 17:20:00,64.0,60.7,29.85,East,88,2.0,4.0,89,0.00,,---,0.30,VWS V14.01,2013-05-09 21:20:00,
2013-05-09 17:23:00,63.7,60.7,29.85,East,98,1.0,2.0,90,0.00,,---,0.30,VWS V14.01,2013-05-09 21:23:00,
2013-05-09 17:25:00,63.7,60.7,29.85,East,98,2.0,4.0,90,0.00,,---,0.30,VWS V14.01,2013-05-09 21:25:00,
2013-05-09 17:28:00,63.5,60.8,29.86,ESE,114,2.0,3.0,91,0.00,,---,0.30,VWS V14.01,2013-05-09 21:28:00,
2013-05-09 17:30:00,63.5,60.5,29.86,SE,127,3.0,5.0,90,0.00,,---,0.30,VWS V14.01,2013-05-09 21:30:00,
2013-05-09 17:33:00,63.2,60.5,29.86,ESE,119,1.0,4.0,91,0.00,,---,0.30,VWS V14.01,2013-05-09 21:33:00,
2013-05-09 17:35:00,63.2,60.5,29.86,ESE,109,1.0,4.0,91,0.00,,---,0.30,VWS V14.01,2013-05-09 21:35:00,
2013-05-09 17:38:00,63.0,60.3,29.86,SE,134,0.0,2.0,91,0.00,,---,0.30,VWS V14.01,2013-05-09 21:38:00,
2013-05-09 17:40:00,63.0,60.3,29.86,SE,134,2.0,4.0,91,0.00,,---,0.30,VWS V14.01,2013-05-09 21:40:00,
2013-05-09 17:43:00,62.8,60.1,29.86,SE,134,0.0,0.0,91,0.00,,---,0.30,VWS V14.01,2013-05-09 21:43:00,
2013-05-09 17:45:00,62.8,60.5,29.86,SE,134,0.0,2.0,92,0.00,,---,0.30,VWS V14.01,2013-05-09 21:45:00,
2013-05-09 17:49:00,62.5,59.8,29.86,East,88,3.0,4.0,91,0.00,,---,0.30,VWS V14.01,2013-05-09 21:49:00,
2013-05-09 17:50:00,62.6,59.9,29.86,SE,133,0.0,3.0,91,0.00,,---,0.30,VWS V14.01,2013-05-09 21:50:00,
2013-05-09 17:54:00,62.3,60.0,29.86,SE,130,1.0,3.0,92,0.00,,---,0.30,VWS V14.01,2013-05-09 21:54:00,
2013-05-09 17:55:00,62.3,60.0,29.86,SE,130,0.0,7.0,92,0.00,,---,0.30,VWS V14.01,2013-05-09 21:55:00,
2013-05-09 17:59:00,62.1,59.8,29.86,ESE,123,0.0,3.0,92,0.01,,---,0.31,VWS V14.01,2013-05-09 21:59:00,
2013-05-09 18:00:00,62.2,59.8,29.86,SE,124,1.0,4.0,92,0.01,,---,0.31,VWS V14.01,2013-05-09 22:00:00,
2013-05-09 18:04:00,61.9,59.9,29.87,East,85,3.0,3.0,93,0.02,,---,0.32,VWS V14.01,2013-05-09 22:04:00,
2013-05-09 18:05:00,61.9,59.9,29.86,East,82,3.0,4.0,93,0.02,,---,0.32,VWS V14.01,2013-05-09 22:05:00,
2013-05-09 18:09:00,61.7,59.7,29.87,SE,130,0.0,1.0,93,0.02,,---,0.32,VWS V14.01,2013-05-09 22:09:00,
2013-05-09 18:10:00,61.7,59.7,29.87,SE,130,1.0,4.0,93,0.02,,---,0.32,VWS V14.01,2013-05-09 22:10:00,
2013-05-09 18:14:00,61.5,59.5,29.87,East,95,0.0,5.0,93,0.03,,---,0.33,VWS V14.01,2013-05-09 22:14:00,
2013-05-09 18:15:00,61.5,59.5,29.87,SE,134,5.0,5.0,93,0.03,,---,0.33,VWS V14.01,2013-05-09 22:15:00,
2013-05-09 18:19:00,61.1,59.1,29.87,SE,141,0.0,3.0,93,0.03,,---,0.33,VWS V14.01,2013-05-09 22:19:00,
2013-05-09 18:20:00,61.2,59.2,29.87,SSE,153,0.0,7.0,93,0.03,,---,0.33,VWS V14.01,2013-05-09 22:20:00,
2013-05-09 18:24:00,60.7,58.7,29.86,ENE,68,4.0,6.0,93,0.04,,---,0.34,VWS V14.01,2013-05-09 22:24:00,
2013-05-09 18:25:00,60.8,58.8,29.87,East,91,2.0,6.0,93,0.04,,---,0.34,VWS V14.01,2013-05-09 22:25:00,
2013-05-09 18:29:00,60.3,58.3,29.86,NNE,32,1.0,2.0,93,0.04,,---,0.34,VWS V14.01,2013-05-09 22:29:00,
2013-05-09 18:30:00,60.4,58.4,29.86,NNE,32,1.0,6.0,93,0.04,,---,0.34,VWS V14.01,2013-05-09 22:30:00,
2013-05-09 18:34:00,60.0,58.3,29.86,North,360,0.0,1.0,94,0.04,,---,0.34,VWS V14.01,2013-05-09 22:34:00,
2013-05-09 18:35:00,60.1,58.4,29.85,North,360,0.0,3.0,94,0.04,,---,0.34,VWS V14.01,2013-05-09 22:35:00,
2013-05-09 18:39:00,59.8,58.1,29.86,North,360,0.0,2.0,94,0.05,,---,0.35,VWS V14.01,2013-05-09 22:39:00,
2013-05-09 18:40:00,59.9,58.2,29.86,North,5,0.0,2.0,94,0.05,,---,0.35,VWS V14.01,2013-05-09 22:40:00,
2013-05-09 18:44:00,59.7,58.0,29.86,North,360,0.0,1.0,94,0.05,,---,0.35,VWS V14.01,2013-05-09 22:44:00,
2013-05-09 18:45:00,59.8,58.1,29.86,North,360,0.0,2.0,94,0.05,,---,0.35,VWS V14.01,2013-05-09 22:45:00,
2013-05-09 18:49:00,59.7,58.0,29.86,North,360,0.0,0.0,94,0.05,,---,0.35,VWS V14.01,2013-05-09 22:49:00,
2013-05-09 18:50:00,59.7,58.0,29.86,North,360,0.0,1.0,94,0.05,,---,0.35,VWS V14.01,2013-05-09 22:50:00,
2013-05-09 18:54:00,59.6,58.2,29.85,North,360,0.0,0.0,95,0.05,,---,0.35,VWS V14.01,2013-05-09 22:54:00,
2013-05-09 18:55:00,59.6,58.2,29.85,North,360,0.0,0.0,95,0.05,,---,0.35,VWS V14.01,2013-05-09 22:55:00,
2013-05-09 18:59:00,59.5,58.1,29.85,East,94,2.0,2.0,95,0.05,,---,0.36,VWS V14.01,2013-05-09 22:59:00,
2013-05-09 19:00:00,59.5,58.1,29.85,East,94,2.0,2.0,95,0.06,,---,0.36,VWS V14.01,2013-05-09 23:00:00,
2013-05-09 19:04:00,59.4,58.0,29.85,East,94,0.0,2.0,95,0.04,,---,0.36,VWS V14.01,2013-05-09 23:04:00,
2013-05-09 19:05:00,59.4,58.0,29.85,East,94,0.0,2.0,95,0.05,,---,0.36,VWS V14.01,2013-05-09 23:05:00,
2013-05-09 19:09:00,59.3,57.9,29.85,East,93,0.0,1.0,95,0.05,,---,0.37,VWS V14.01,2013-05-09 23:09:00,
2013-05-09 19:10:00,59.3,57.9,29.85,East,93,0.0,2.0,95,0.05,,---,0.37,VWS V14.01,2013-05-09 23:10:00,
2013-05-09 19:14:00,59.1,57.7,29.85,East,96,0.0,2.0,95,0.05,,---,0.38,VWS V14.01,2013-05-09 23:14:00,
2013-05-09 19:15:00,59.1,57.7,29.85,East,96,0.0,2.0,95,0.05,,---,0.37,VWS V14.01,2013-05-09 23:15:00,
2013-05-09 19:19:00,59.0,57.6,29.85,East,96,0.0,2.0,95,0.05,,---,0.38,VWS V14.01,2013-05-09 23:19:00,
2013-05-09 19:20:00,59.0,57.6,29.85,East,96,0.0,2.0,95,0.05,,---,0.38,VWS V14.01,2013-05-09 23:20:00,
2013-05-09 19:24:00,59.0,57.6,29.85,East,96,0.0,1.0,95,0.05,,---,0.39,VWS V14.01,2013-05-09 23:24:00,
2013-05-09 19:25:00,59.0,57.6,29.84,East,96,0.0,3.0,95,0.06,,---,0.39,VWS V14.01,2013-05-09 23:25:00,
2013-05-09 19:29:00,59.0,57.6,29.85,East,96,0.0,1.0,95,0.06,,---,0.40,VWS V14.01,2013-05-09 23:29:00,
2013-05-09 19:30:00,59.0,57.6,29.85,East,96,0.0,2.0,95,0.05,,---,0.39,VWS V14.01,2013-05-09 23:30:00,
2013-05-09 19:34:00,59.0,57.9,29.85,East,96,0.0,0.0,96,0.06,,---,0.40,VWS V14.01,2013-05-09 23:34:00,
2013-05-09 19:35:00,59.0,57.6,29.85,East,96,0.0,1.0,95,0.06,,---,0.40,VWS V14.01,2013-05-09 23:35:00,
2013-05-09 19:39:00,59.0,57.6,29.85,East,96,0.0,1.0,95,0.05,,---,0.40,VWS V14.01,2013-05-09 23:39:00,
2013-05-09 19:40:00,59.0,57.9,29.85,East,96,0.0,0.0,96,0.06,,---,0.40,VWS V14.01,2013-05-09 23:40:00,
2013-05-09 19:45:00,59.0,57.9,29.85,East,96,0.0,0.0,96,0.05,,---,0.40,VWS V14.01,2013-05-09 23:45:00,
2013-05-09 19:50:00,59.0,57.9,29.85,East,96,0.0,0.0,96,0.05,,---,0.40,VWS V14.01,2013-05-09 23:50:00,
2013-05-09 19:55:00,59.0,57.9,29.85,East,96,0.0,1.0,96,0.06,,---,0.41,VWS V14.01,2013-05-09 23:55:00,
2013-05-09 20:00:00,58.8,57.7,29.85,East,96,0.0,2.0,96,0.05,,---,0.41,VWS V14.01,2013-05-10 00:00:00,
2013-05-09 20:05:00,58.7,57.6,29.85,East,96,0.0,0.0,96,0.05,,---,0.41,VWS V14.01,2013-05-10 00:05:00,
2013-05-09 20:10:00,58.7,57.6,29.85,East,96,0.0,1.0,96,0.04,,---,0.41,VWS V14.01,2013-05-10 00:10:00,
2013-05-09 20:15:00,58.6,57.5,29.85,East,96,2.0,2.0,96,0.04,,---,0.41,VWS V14.01,2013-05-10 00:15:00,
2013-05-09 20:20:00,58.4,57.3,29.85,East,96,1.0,1.0,96,0.03,,---,0.41,VWS V14.01,2013-05-10 00:20:00,
2013-05-09 20:25:00,58.4,57.3,29.85,East,96,0.0,2.0,96,0.02,,---,0.41,VWS V14.01,2013-05-10 00:25:00,
2013-05-09 20:30:00,58.3,57.2,29.85,East,96,0.0,0.0,96,0.02,,---,0.41,VWS V14.01,2013-05-10 00:30:00,
2013-05-09 20:35:00,58.2,57.1,29.86,East,96,0.0,0.0,96,0.01,,---,0.41,VWS V14.01,2013-05-10 00:35:00,
2013-05-09 20:40:00,58.1,57.0,29.85,East,96,0.0,0.0,96,0.01,,---,0.41,VWS V14.01,2013-05-10 00:40:00,
2013-05-09 20:45:00,58.0,56.9,29.86,East,96,0.0,0.0,96,0.01,,---,0.41,VWS V14.01,2013-05-10 00:45:00,
2013-05-09 20:50:00,57.8,56.7,29.86,East,96,0.0,0.0,96,0.01,,---,0.41,VWS V14.01,2013-05-10 00:50:00,
2013-05-09 20:55:00,57.7,56.6,29.86,East,96,0.0,0.0,96,0.01,,---,0.41,VWS V14.01,2013-05-10 00:55:00,
2013-05-09 21:00:00,57.5,56.4,29.86,East,96,0.0,1.0,96,0.00,,---,0.41,VWS V14.01,2013-05-10 01:00:00,
2013-05-09 21:05:00,57.4,56.3,29.86,East,96,0.0,0.0,96,0.00,,---,0.41,VWS V14.01,2013-05-10 01:05:00,
2013-05-09 21:10:00,57.3,56.2,29.87,East,96,0.0,0.0,96,0.00,,---,0.41,VWS V14.01,2013-05-10 01:10:00,
2013-05-09 21:15:00,57.2,56.1,29.86,East,96,0.0,0.0,96,0.00,,---,0.41,VWS V14.01,2013-05-10 01:15:00,
2013-05-09 21:20:00,57.3,56.2,29.87,East,96,0.0,0.0,96,0.00,,---,0.41,VWS V14.01,2013-05-10 01:20:00,
2013-05-09 21:25:00,57.5,56.4,29.87,East,96,0.0,0.0,96,0.00,,---,0.41,VWS V14.01,2013-05-10 01:25:00,
2013-05-09 21:30:00,57.6,56.5,29.88,East,96,0.0,0.0,96,0.00,,---,0.41,VWS V14.01,2013-05-10 01:30:00,
2013-05-09 21:35:00,57.7,56.6,29.88,East,96,0.0,0.0,96,0.00,,---,0.41,VWS V14.01,2013-05-10 01:35:00,
2013-05-09 21:36:00,57.7,56.6,29.88,East,96,0.0,0.0,96,0.00,,---,0.41,VWS V14.01,2013-05-10 01:36:00,
2013-05-09 21:40:00,57.7,56.6,29.88,East,96,0.0,0.0,96,0.00,,---,0.41,VWS V14.01,2013-05-10 01:40:00,
2013-05-09 21:41:00,57.7,56.6,29.88,East,96,0.0,0.0,96,0.00,,---,0.41,VWS V14.01,2013-05-10 01:41:00,
2013-05-09 21:45:00,57.7,56.6,29.88,East,96,0.0,0.0,96,0.00,,---,0.41,VWS V14.01,2013-05-10 01:45:00,
2013-05-09 21:46:00,57.7,56.6,29.88,East,96,0.0,0.0,96,0.00,,---,0.41,VWS V14.01,2013-05-10 01:46:00,
2013-05-09 21:50:00,57.7,56.6,29.88,East,96,0.0,0.0,96,0.00,,---,0.41,VWS V14.01,2013-05-10 01:50:00,
2013-05-09 21:51:00,57.6,56.5,29.88,East,96,0.0,0.0,96,0.00,,---,0.41,VWS V14.01,2013-05-10 01:51:00,
2013-05-09 21:55:00,57.6,56.5,29.88,East,96,0.0,0.0,96,0.00,,---,0.41,VWS V14.01,2013-05-10 01:55:00,
2013-05-09 21:56:00,57.6,56.5,29.88,East,96,0.0,0.0,96,0.00,,---,0.41,VWS V14.01,2013-05-10 01:56:00,
2013-05-09 22:00:00,57.6,56.5,29.88,East,96,0.0,0.0,96,0.00,,---,0.41,VWS V14.01,2013-05-10 02:00:00,
2013-05-09 22:01:00,57.6,56.5,29.87,East,96,0.0,0.0,96,0.00,,---,0.41,VWS V14.01,2013-05-10 02:01:00,
2013-05-09 22:05:00,57.6,56.8,29.87,East,96,0.0,0.0,97,0.00,,---,0.41,VWS V14.01,2013-05-10 02:05:00,
2013-05-09 22:06:00,57.6,56.8,29.87,East,96,0.0,0.0,97,0.00,,---,0.41,VWS V14.01,2013-05-10 02:06:00,
2013-05-09 22:10:00,57.6,56.8,29.87,East,96,0.0,0.0,97,0.00,,---,0.41,VWS V14.01,2013-05-10 02:10:00,
2013-05-09 22:11:00,57.6,56.8,29.87,East,96,0.0,0.0,97,0.00,,---,0.41,VWS V14.01,2013-05-10 02:11:00,
2013-05-09 22:15:00,57.7,56.9,29.87,East,96,0.0,0.0,97,0.00,,---,0.41,VWS V14.01,2013-05-10 02:15:00,
2013-05-09 22:16:00,57.8,57.0,29.87,East,96,0.0,0.0,97,0.00,,---,0.41,VWS V14.01,2013-05-10 02:16:00,
2013-05-09 22:20:00,57.8,57.0,29.87,East,96,0.0,0.0,97,0.00,,---,0.41,VWS V14.01,2013-05-10 02:20:00,
2013-05-09 22:21:00,57.7,56.9,29.87,East,96,0.0,0.0,97,0.00,,---,0.41,VWS V14.01,2013-05-10 02:21:00,
2013-05-09 22:25:00,57.7,56.9,29.87,East,96,0.0,0.0,97,0.00,,---,0.41,VWS V14.01,2013-05-10 02:25:00,
2013-05-09 22:26:00,57.7,56.9,29.87,East,96,0.0,0.0,97,0.00,,---,0.41,VWS V14.01,2013-05-10 02:26:00,
2013-05-09 22:30:00,57.7,56.9,29.87,East,96,0.0,0.0,97,0.00,,---,0.41,VWS V14.01,2013-05-10 02:30:00,
2013-05-09 22:31:00,57.7,56.9,29.87,East,96,0.0,0.0,97,0.00,,---,0.41,VWS V14.01,2013-05-10 02:31:00,
2013-05-09 22:35:00,57.7,56.9,29.87,East,96,0.0,0.0,97,0.00,,---,0.41,VWS V14.01,2013-05-10 02:35:00,
2013-05-09 22:36:00,57.7,56.9,29.87,East,96,0.0,0.0,97,0.00,,---,0.41,VWS V14.01,2013-05-10 02:36:00,
2013-05-09 22:40:00,57.7,56.9,29.87,East,96,0.0,0.0,97,0.00,,---,0.41,VWS V14.01,2013-05-10 02:40:00,
2013-05-09 22:41:00,57.7,56.9,29.87,East,96,0.0,0.0,97,0.00,,---,0.41,VWS V14.01,2013-05-10 02:41:00,
2013-05-09 22:45:00,57.7,56.9,29.87,East,96,0.0,0.0,97,0.00,,---,0.41,VWS V14.01,2013-05-10 02:45:00,
2013-05-09 22:46:00,57.7,56.9,29.87,East,96,0.0,0.0,97,0.00,,---,0.41,VWS V14.01,2013-05-10 02:46:00,
2013-05-09 22:50:00,57.7,56.9,29.87,East,96,0.0,0.0,97,0.00,,---,0.41,VWS V14.01,2013-05-10 02:50:00,
2013-05-09 22:51:00,57.8,57.0,29.86,East,96,0.0,0.0,97,0.00,,---,0.41,VWS V14.01,2013-05-10 02:51:00,
2013-05-09 22:55:00,57.8,57.0,29.86,East,96,0.0,0.0,97,0.00,,---,0.41,VWS V14.01,2013-05-10 02:55:00,
2013-05-09 22:56:00,58.0,57.2,29.86,East,96,0.0,0.0,97,0.00,,---,0.41,VWS V14.01,2013-05-10 02:56:00,
2013-05-09 23:00:00,58.1,57.3,29.86,East,96,0.0,0.0,97,0.00,,---,0.41,VWS V14.01,2013-05-10 03:00:00,
2013-05-09 23:01:00,58.1,57.3,29.86,East,96,0.0,0.0,97,0.00,,---,0.41,VWS V14.01,2013-05-10 03:01:00,
2013-05-09 23:05:00,58.1,57.3,29.86,East,96,0.0,0.0,97,0.00,,---,0.41,VWS V14.01,2013-05-10 03:05:00,
2013-05-09 23:06:00,58.1,57.3,29.86,East,96,0.0,0.0,97,0.00,,---,0.41,VWS V14.01,2013-05-10 03:06:00,
2013-05-09 23:10:00,58.1,57.3,29.86,East,96,0.0,0.0,97,0.00,,---,0.41,VWS V14.01,2013-05-10 03:10:00,
2013-05-09 23:11:00,58.0,57.2,29.86,East,96,0.0,0.0,97,0.00,,---,0.41,VWS V14.01,2013-05-10 03:11:00,
2013-05-09 23:15:00,58.0,57.2,29.86,East,96,0.0,0.0,97,0.00,,---,0.41,VWS V14.01,2013-05-10 03:15:00,
2013-05-09 23:16:00,58.0,57.2,29.86,East,96,0.0,0.0,97,0.00,,---,0.41,VWS V14.01,2013-05-10 03:16:00,
2013-05-09 23:20:00,58.0,57.2,29.86,East,96,0.0,0.0,97,0.00,,---,0.41,VWS V14.01,2013-05-10 03:20:00,
2013-05-09 23:21:00,58.0,57.2,29.86,East,96,0.0,0.0,97,0.00,,---,0.41,VWS V14.01,2013-05-10 03:21:00,
2013-05-09 23:25:00,58.0,57.2,29.86,East,96,0.0,0.0,97,0.00,,---,0.41,VWS V14.01,2013-05-10 03:25:00,
2013-05-09 23:26:00,57.9,57.1,29.86,East,96,0.0,0.0,97,0.00,,---,0.41,VWS V14.01,2013-05-10 03:26:00,
2013-05-09 23:30:00,58.0,57.2,29.86,East,96,0.0,0.0,97,0.00,,---,0.41,VWS V14.01,2013-05-10 03:30:00,
2013-05-09 23:31:00,58.0,57.2,29.86,East,96,0.0,0.0,97,0.00,,---,0.41,VWS V14.01,2013-05-10 03:31:00,
2013-05-09 23:35:00,58.0,57.2,29.85,East,96,0.0,0.0,97,0.00,,---,0.41,VWS V14.01,2013-05-10 03:35:00,
2013-05-09 23:37:00,57.9,57.1,29.85,East,96,0.0,0.0,97,0.00,,---,0.41,VWS V14.01,2013-05-10 03:37:00,
2013-05-09 23:40:00,58.0,57.2,29.86,East,96,0.0,0.0,97,0.00,,---,0.41,VWS V14.01,2013-05-10 03:40:00,
2013-05-09 23:42:00,57.9,57.1,29.86,East,96,0.0,0.0,97,0.00,,---,0.41,VWS V14.01,2013-05-10 03:42:00,
2013-05-09 23:45:00,58.0,57.2,29.86,East,96,0.0,0.0,97,0.00,,---,0.41,VWS V14.01,2013-05-10 03:45:00,
2013-05-09 23:47:00,58.0,57.2,29.86,East,96,0.0,0.0,97,0.00,,---,0.41,VWS V14.01,2013-05-10 03:47:00,
2013-05-09 23:50:00,58.0,57.2,29.86,East,96,0.0,0.0,97,0.00,,---,0.41,VWS V14.01,2013-05-10 03:50:00,
2013-05-09 23:52:00,57.9,57.1,29.86,East,96,0.0,0.0,97,0.00,,---,0.41,VWS V14.01,2013-05-10 03:52:00,
2013-05-09 23:55:00,57.9,57.1,29.86,East,96,0.0,0.0,97,0.00,,---,0.41,VWS V14.01,2013-05-10 03:55:00,
2013-05-09 23:57:00,57.8,57.0,29.86,East,96,0.0,0.0,97,0.00,,---,0.41,VWS V14.01,2013-05-10 03:57:00,